Location: Brachbach
(49.1847°N, 9.7240°E)
Time: 06:56:24
(UTC+00:00)

FO-29 - Pass Details

Date: 17 March 2026
Orbit: 801 x 1320 km, 98.5° (Epoch: 17 April)

Event Time Altitude Azimuth Distance (km) Brightness Sun altitude
Rises 22:41:59 0° 6° (N) 4,087 13.5 -40.8°
Reaches altitude 10° 22:46:08 10° 343° (NNW) 3,211 12.8 -41.0°
Maximum altitude 22:49:27 14° 316° (NW) 2,988 12.5 -41.1°
Drops below altitude 10° 22:52:51 10° 290° (WNW) 3,309 12.5 -41.2°
Sets 22:57:17 0° 267° (W) 4,313 12.9 -41.4°
